,,Stat6,,Stat2,,Stat8,,Stat9,,Stat10,,Wind1,,Wind1,
time,status,PA1M_AVG,status,PR1M_SUM,status,RH1M_AVG,status,SR1M_AVG,status,TA1M_AVG,status,W1dAve1m,status,W1sAve1m,
2007-09-29, 00:00:00,VALID,918.922,VALID,0,VALID,99.8833,VALID,-0.0339617,VALID,20.3258,VALID,50,VALID,0.194111,
2007-09-29, 00:01:00,VALID,918.89,VALID,0,VALID,99.7574,VALID,0,VALID,20.3256,VALID,50,VALID,0.0363948,
2007-09-29, 00:02:00,VALID,918.881,VALID,0,VALID,99.7536,VALID,0,VALID,20.2993,VALID,50,VALID,0,
2007-09-29, 00:03:00,VALID,918.86,VALID,0,VALID,99.7841,VALID,0,VALID,20.2766,VALID,50,VALID,0,
2007-09-29, 00:04:00,VALID,918.844,VALID,0,VALID,99.6811,VALID,-0.0339617,VALID,20.2639,VALID,50,VALID,0,
2007-09-29, 00:05:00,VALID,918.838,VALID,0,VALID,99.484,VALID,-0.0509425,VALID,20.2355,VALID,50,VALID,0,
2007-09-29, 00:06:00,VALID,918.808,VALID,0,VALID,99.2525,VALID,-0.0339617,VALID,20.1663,VALID,50,VALID,0,
2007-09-29, 00:07:00,VALID,918.794,VALID,0,VALID,99.2131,VALID,-0.0679233,VALID,20.1149,VALID,50,VALID,0,
2007-09-29, 00:08:00,VALID,918.791,VALID,0,VALID,99.4687,VALID,-0.0679233,VALID,20.0854,VALID,50,VALID,0,
2007-09-29, 00:09:00,VALID,918.793,VALID,0,VALID,99.8133,VALID,-0.0509425,VALID,20.0952,VALID,42,VALID,0,
2007-09-29, 00:10:00,VALID,918.807,VALID,0,VALID,99.9659,VALID,-0.0679233,VALID,20.1209,VALID,36,VALID,0,
2007-09-29, 00:11:00,VALID,918.797,VALID,0,VALID,99.9929,VALID,0,VALID,20.1374,VALID,36,VALID,0,
2007-09-29, 00:12:00,VALID,918.785,VALID,0,VALID,99.9583,VALID,-0.0169808,VALID,20.1401,VALID,36,VALID,0,
2007-09-29, 00:13:00,VALID,918.783,VALID,0,VALID,100,VALID,0,VALID,20.1536,VALID,36,VALID,0,
2007-09-29, 00:14:00,VALID,918.775,VALID,0,VALID,100,VALID,-0.0169808,VALID,20.1795,VALID,36,VALID,0,
2007-09-29, 00:15:00,VALID,918.755,VALID,0,VALID,100,VALID,-0.0509425,VALID,20.1895,VALID,36,VALID,0,
2007-09-29, 00:16:00,VALID,918.755,VALID,0,VALID,100,VALID,-0.0339617,VALID,20.2152,VALID,36,VALID,0,
2007-09-29, 00:17:00,VALID,918.748,VALID,0,VALID,100,VALID,0,VALID,20.2412,VALID,36,VALID,0.00364583,
2007-09-29, 00:18:00,VALID,918.743,VALID,0,VALID,100,VALID,-0.0169808,VALID,20.2704,VALID,34,VALID,0.0413194,
2007-09-29, 00:19:00,VALID,918.733,VALID,0,VALID,100,VALID,-0.0339617,VALID,20.3126,VALID,33,VALID,0.0421512,
2007-09-29, 00:20:00,VALID,918.744,VALID,0,VALID,100,VALID,-0.0169808,VALID,20.3283,VALID,33,VALID,0,
2007-09-29, 00:21:00,VALID,918.743,VALID,0,VALID,100,VALID,0,VALID,20.3445,VALID,33,VALID,0,
2007-09-29, 00:22:00,VALID,918.73,VALID,0,VALID,100,VALID,0.0169808,VALID,20.3091,VALID,33,VALID,0,
2007-09-29, 00:23:00,VALID,918.717,VALID,0,VALID,100,VALID,-0.0339617,VALID,20.2637,VALID,33,VALID,0,
2007-09-29, 00:24:00,VALID,918.701,VALID,0,VALID,100,VALID,-0.0169808,VALID,20.2447,VALID,33,VALID,0,
2007-09-29, 00:25:00,VALID,918.695,VALID,0,VALID,100,VALID,0,VALID,20.2472,VALID,33,VALID,0,
2007-09-29, 00:26:00,VALID,918.679,VALID,0,VALID,100,VALID,-0.0339617,VALID,20.2472,VALID,33,VALID,0,
2007-09-29, 00:27:00,VALID,918.673,VALID,0,VALID,100,VALID,-0.0169808,VALID,20.2374,VALID,33,VALID,0,
2007-09-29, 00:28:00,VALID,918.656,VALID,0,VALID,100,VALID,-0.0339617,VALID,20.2736,VALID,33,VALID,0,
2007-09-29, 00:29:00,VALID,918.651,VALID,0,VALID,100,VALID,-0.0339617,VALID,20.2961,VALID,27,VALID,0.255632,
2007-09-29, 00:30:00,VALID,918.651,VALID,0,VALID,100,VALID,-0.0509425,VALID,20.3288,VALID,27,VALID,0.149858,
2007-09-29, 00:31:00,VALID,918.639,VALID,0,VALID,100,VALID,-0.0169808,VALID,20.3091,VALID,27,VALID,0.136814,
2007-09-29, 00:32:00,VALID,918.608,VALID,0,VALID,100,VALID,-0.0339617,VALID,20.3123,VALID,27,VALID,0.220084,
2007-09-29, 00:33:00,VALID,918.591,VALID,0,VALID,100,VALID,-0.0679233,VALID,20.3058,VALID,26,VALID,0.411585,
2007-09-29, 00:34:00,VALID,918.57,VALID,0,VALID,100,VALID,-0.0169808,VALID,20.3318,VALID,26,VALID,0,
2007-09-29, 00:35:00,VALID,918.544,VALID,0,VALID,100,VALID,-0.0339617,VALID,20.3515,VALID,26,VALID,0.0926599,
2007-09-29, 00:36:00,VALID,918.525,VALID,0,VALID,100,VALID,-0.0849042,VALID,20.371,VALID,27,VALID,0.516319,
2007-09-29, 00:37:00,VALID,918.519,VALID,0,VALID,100,VALID,-0.0169808,VALID,20.3648,VALID,27,VALID,0.0207201,
2007-09-29, 00:38:00,VALID,918.515,VALID,0,VALID,100,VALID,0,VALID,20.3353,VALID,27,VALID,0,
2007-09-29, 00:39:00,VALID,918.508,VALID,0,VALID,100,VALID,-0.0339617,VALID,20.3121,VALID,38,VALID,0,
2007-09-29, 00:40:00,VALID,918.52,VALID,0,VALID,100,VALID,0,VALID,20.2864,VALID,59,VALID,0.445871,
2007-09-29, 00:41:00,VALID,918.522,VALID,0,VALID,100,VALID,-0.0169808,VALID,20.2344,VALID,71,VALID,0.546693,
2007-09-29, 00:42:00,VALID,918.511,VALID,0,VALID,99.9964,VALID,-0.0509425,VALID,20.1853,VALID,94,VALID,0.72603,
2007-09-29, 00:43:00,VALID,918.518,VALID,0,VALID,99.9771,VALID,0,VALID,20.1598,VALID,109,VALID,0.262957,
2007-09-29, 00:44:00,VALID,918.533,VALID,0,VALID,100,VALID,-0.0169808,VALID,20.1306,VALID,109,VALID,0,
2007-09-29, 00:45:00,VALID,918.537,VALID,0,VALID,100,VALID,-0.0509425,VALID,20.1501,VALID,109,VALID,0,
2007-09-29, 00:46:00,VALID,918.52,VALID,0,VALID,100,VALID,0,VALID,20.1625,VALID,109,VALID,0,
2007-09-29, 00:47:00,VALID,918.508,VALID,0,VALID,100,VALID,0,VALID,20.186,VALID,109,VALID,0,
2007-09-29, 00:48:00,VALID,918.489,VALID,0,VALID,100,VALID,0,VALID,20.1955,VALID,109,VALID,0,
2007-09-29, 00:49:00,VALID,918.465,VALID,0,VALID,100,VALID,-0.0169808,VALID,20.2185,VALID,109,VALID,0,
2007-09-29, 00:50:00,VALID,918.442,VALID,0,VALID,100,VALID,-0.0679233,VALID,20.2412,VALID,109,VALID,0,
2007-09-29, 00:51:00,VALID,918.437,VALID,0,VALID,100,VALID,-0.0679233,VALID,20.2479,VALID,109,VALID,0,
2007-09-29, 00:52:00,VALID,918.408,VALID,0,VALID,100,VALID,-0.0679233,VALID,20.2542,VALID,148,VALID,0.132267,
2007-09-29, 00:53:00,VALID,918.393,VALID,0,VALID,100,VALID,-0.0169808,VALID,20.2604,VALID,148,VALID,0,
2007-09-29, 00:54:00,VALID,918.37,VALID,0,VALID,100,VALID,-0.0509425,VALID,20.2479,VALID,138,VALID,0,
2007-09-29, 00:55:00,VALID,918.338,VALID,0,VALID,100,VALID,-0.0339617,VALID,20.202,VALID,138,VALID,0,
2007-09-29, 00:56:00,VALID,918.299,VALID,0,VALID,100,VALID,-0.0339617,VALID,20.173,VALID,138,VALID,0,
2007-09-29, 00:57:00,VALID,918.272,VALID,0,VALID,100,VALID,-0.0679233,VALID,20.1671,VALID,138,VALID,0,
2007-09-29, 00:58:00,VALID,918.225,VALID,0,VALID,100,VALID,-0.0679233,VALID,20.1566,VALID,138,VALID,0,
2007-09-29, 00:59:00,VALID,918.194,VALID,0,VALID,100,VALID,-0.0509425,VALID,20.1506,VALID,137,VALID,0.137305,
2007-09-29, 01:00:00,VALID,918.163,VALID,0,VALID,100,VALID,0,VALID,20.1276,VALID,135,VALID,0.36471,
2007-09-29, 01:01:00,VALID,918.149,VALID,0,VALID,100,VALID,-0.0509425,VALID,20.1111,VALID,119,VALID,0.429501,
2007-09-29, 01:02:00,VALID,918.104,VALID,0,VALID,100,VALID,0,VALID,20.0754,VALID,119,VALID,0.439317,
2007-09-29, 01:03:00,VALID,918.088,VALID,0,VALID,100,VALID,0,VALID,20.059,VALID,119,VALID,0.495046,
2007-09-29, 01:04:00,VALID,918.053,VALID,0,VALID,100,VALID,-0.0339617,VALID,20.0333,VALID,121,VALID,0.511719,
2007-09-29, 01:05:00,VALID,918.032,VALID,0,VALID,100,VALID,-0.0339617,VALID,20.0173,VALID,122,VALID,0.397892,
2007-09-29, 01:06:00,VALID,918.001,VALID,0,VALID,100,VALID,-0.0169808,VALID,19.9846,VALID,122,VALID,0.66654,
2007-09-29, 01:07:00,VALID,917.977,VALID,0,VALID,100,VALID,0,VALID,19.9719,VALID,112,VALID,0.614769,
2007-09-29, 01:08:00,VALID,917.954,VALID,0,VALID,100,VALID,-0.0339617,VALID,19.9524,VALID,91,VALID,0.514509,
2007-09-29, 01:09:00,VALID,917.931,VALID,0,VALID,100,VALID,-0.0509425,VALID,19.9524,VALID,76,VALID,0.54524,
2007-09-29, 01:10:00,VALID,917.906,VALID,0,VALID,100,VALID,-0.0339617,VALID,19.9519,VALID,75,VALID,0.680051,
2007-09-29, 01:11:00,VALID,917.905,VALID,0,VALID,100,VALID,-0.0169808,VALID,19.9427,VALID,67,VALID,0.667783,
2007-09-29, 01:12:00,VALID,917.898,VALID,0,VALID,100,VALID,-0.0339617,VALID,19.9491,VALID,49,VALID,0.759014,
2007-09-29, 01:13:00,VALID,917.888,VALID,0,VALID,100,VALID,-0.0169808,VALID,19.9521,VALID,52,VALID,0.704397,
2007-09-29, 01:14:00,VALID,917.88,VALID,0,VALID,100,VALID,0,VALID,19.9589,VALID,55,VALID,0.681974,
2007-09-29, 01:15:00,VALID,917.886,VALID,0,VALID,100,VALID,-0.0169808,VALID,19.9459,VALID,76,VALID,0.773633,
2007-09-29, 01:16:00,VALID,917.889,VALID,0,VALID,100,VALID,0,VALID,19.9329,VALID,80,VALID,0.674826,
2007-09-29, 01:17:00,VALID,917.875,VALID,0,VALID,100,VALID,-0.0339617,VALID,19.9199,VALID,97,VALID,0.869731,
2007-09-29, 01:18:00,VALID,917.869,VALID,0,VALID,100,VALID,-0.0509425,VALID,19.8643,VALID,108,VALID,0.872275,
2007-09-29, 01:19:00,VALID,917.869,VALID,0,VALID,100,VALID,-0.0679233,VALID,19.8386,VALID,112,VALID,0.951257,
2007-09-29, 01:20:00,VALID,917.86,VALID,0,VALID,100,VALID,-0.0509425,VALID,19.8099,VALID,108,VALID,0.889623,
2007-09-29, 01:21:00,VALID,917.857,VALID,0,VALID,100,VALID,-0.0169808,VALID,19.7934,VALID,108,VALID,1.07432,
2007-09-29, 01:22:00,VALID,917.853,VALID,0,VALID,100,VALID,0,VALID,19.754,VALID,118,VALID,0.905869,
2007-09-29, 01:23:00,VALID,917.845,VALID,0,VALID,100,VALID,-0.0169808,VALID,19.728,VALID,112,VALID,0.945499,
2007-09-29, 01:24:00,VALID,917.822,VALID,0,VALID,100,VALID,-0.0169808,VALID,19.7055,VALID,102,VALID,0.681784,
2007-09-29, 01:25:00,VALID,917.808,VALID,0,VALID,100,VALID,-0.0169808,VALID,19.6863,VALID,101,VALID,0.742773,
2007-09-29, 01:26:00,VALID,917.792,VALID,0,VALID,100,VALID,-0.0169808,VALID,19.6733,VALID,98,VALID,0.443638,
2007-09-29, 01:27:00,VALID,917.796,VALID,0,VALID,100,VALID,-0.0509425,VALID,19.6604,VALID,74,VALID,0.585565,
2007-09-29, 01:28:00,VALID,917.795,VALID,0,VALID,100,VALID,-0.0339617,VALID,19.6469,VALID,57,VALID,0.756669,
2007-09-29, 01:29:00,VALID,917.777,VALID,0,VALID,100,VALID,0,VALID,19.6302,VALID,53,VALID,0.892113,
2007-09-29, 01:30:00,VALID,917.784,VALID,0,VALID,100,VALID,-0.0339617,VALID,19.6045,VALID,55,VALID,0.957485,
2007-09-29, 01:31:00,VALID,917.779,VALID,0,VALID,100,VALID,-0.0339617,VALID,19.6015,VALID,64,VALID,0.913681,
2007-09-29, 01:32:00,VALID,917.789,VALID,0,VALID,100,VALID,0,VALID,19.6082,VALID,66,VALID,0.670922,
2007-09-29, 01:33:00,VALID,917.787,VALID,0,VALID,100,VALID,0,VALID,19.5955,VALID,66,VALID,0.670099,
2007-09-29, 01:34:00,VALID,917.788,VALID,0,VALID,100,VALID,-0.0339617,VALID,19.5892,VALID,66,VALID,0.602121,
2007-09-29, 01:35:00,VALID,917.787,VALID,0,VALID,100,VALID,-0.0509425,VALID,19.5565,VALID,65,VALID,0.389482,
2007-09-29, 01:36:00,VALID,917.78,VALID,0,VALID,100,VALID,-0.0339617,VALID,19.5433,VALID,65,VALID,0.0993304,
2007-09-29, 01:37:00,VALID,917.781,VALID,0,VALID,100,VALID,-0.0169808,VALID,19.5368,VALID,52,VALID,0.31468,
2007-09-29, 01:38:00,VALID,917.765,VALID,0,VALID,100,VALID,-0.0169808,VALID,19.5468,VALID,39,VALID,0.509448,
2007-09-29, 01:39:00,VALID,917.749,VALID,0,VALID,100,VALID,-0.0169808,VALID,19.5303,VALID,35,VALID,0.281613,
2007-09-29, 01:40:00,VALID,917.742,VALID,0,VALID,100,VALID,0,VALID,19.5104,VALID,35,VALID,0.0920351,
2007-09-29, 01:41:00,VALID,917.734,VALID,0,VALID,100,VALID,-0.0169808,VALID,19.5169,VALID,35,VALID,0.231399,
2007-09-29, 01:42:00,VALID,917.734,VALID,0,VALID,100,VALID,0,VALID,19.5266,VALID,35,VALID,0.00213068,
2007-09-29, 01:43:00,VALID,917.734,VALID,0,VALID,100,VALID,-0.0339617,VALID,19.5401,VALID,35,VALID,0,
2007-09-29, 01:44:00,VALID,917.744,VALID,0,VALID,100,VALID,-0.0169808,VALID,19.5533,VALID,35,VALID,0,
2007-09-29, 01:45:00,VALID,917.745,VALID,0,VALID,100,VALID,-0.0169808,VALID,19.5523,VALID,35,VALID,0,
2007-09-29, 01:46:00,VALID,917.745,VALID,0,VALID,100,VALID,0,VALID,19.5728,VALID,35,VALID,0,
2007-09-29, 01:47:00,VALID,917.724,VALID,0,VALID,100,VALID,-0.0169808,VALID,19.5695,VALID,35,VALID,0,
2007-09-29, 01:48:00,VALID,917.711,VALID,0,VALID,100,VALID,-0.0339617,VALID,19.5598,VALID,35,VALID,0,
2007-09-29, 01:49:00,VALID,917.711,VALID,0,VALID,100,VALID,-0.0509425,VALID,19.5436,VALID,56,VALID,0.349609,
2007-09-29, 01:50:00,VALID,917.703,VALID,0,VALID,100,VALID,-0.0169808,VALID,19.5206,VALID,91,VALID,0.626953,
2007-09-29, 01:51:00,VALID,917.694,VALID,0,VALID,100,VALID,-0.0169808,VALID,19.4979,VALID,103,VALID,0.672602,
2007-09-29, 01:52:00,VALID,917.684,VALID,0,VALID,100,VALID,0.0679233,VALID,19.4707,VALID,114,VALID,0.771577,
2007-09-29, 01:53:00,VALID,917.679,VALID,0,VALID,100,VALID,0.0339617,VALID,19.4413,VALID,123,VALID,0.682413,
2007-09-29, 01:54:00,VALID,917.663,VALID,0,VALID,100,VALID,0.0339617,VALID,19.4318,VALID,128,VALID,0.624809,
2007-09-29, 01:55:00,VALID,917.652,VALID,0,VALID,100,VALID,0.0679233,VALID,19.4348,VALID,141,VALID,0.416211,
2007-09-29, 01:56:00,VALID,917.637,VALID,0,VALID,100,VALID,0.101885,VALID,19.4375,VALID,150,VALID,0.258371,
2007-09-29, 01:57:00,VALID,917.646,VALID,0,VALID,100,VALID,0.0849042,VALID,19.4375,VALID,150,VALID,0.329013,
2007-09-29, 01:58:00,VALID,917.632,VALID,0,VALID,100,VALID,0.0679233,VALID,19.4413,VALID,151,VALID,0.474964,
2007-09-29, 01:59:00,VALID,917.623,VALID,0,VALID,100,VALID,0.0679233,VALID,19.4542,VALID,156,VALID,0.466493,
2007-09-29, 02:00:00,VALID,917.624,VALID,0,VALID,100,VALID,0.0679233,VALID,19.4675,VALID,149,VALID,0.5625,
2007-09-29, 02:01:00,VALID,917.606,VALID,0,VALID,100,VALID,-0.0509425,VALID,19.4852,VALID,145,VALID,0.419727,
2007-09-29, 02:02:00,VALID,917.603,VALID,0,VALID,100,VALID,-0.0339617,VALID,19.4949,VALID,125,VALID,0.531027,
2007-09-29, 02:03:00,VALID,917.595,VALID,0,VALID,100,VALID,-0.0509425,VALID,19.4977,VALID,116,VALID,0.717634,
2007-09-29, 02:04:00,VALID,917.588,VALID,0,VALID,100,VALID,-0.0509425,VALID,19.5243,VALID,104,VALID,0.666726,
2007-09-29, 02:05:00,VALID,917.608,VALID,0,VALID,100,VALID,-0.0339617,VALID,19.5271,VALID,96,VALID,0.7117,
2007-09-29, 02:06:00,VALID,917.602,VALID,0,VALID,100,VALID,-0.0339617,VALID,19.5431,VALID,93,VALID,0.467988,
2007-09-29, 02:07:00,VALID,917.596,VALID,0,VALID,100,VALID,0.0509425,VALID,19.5778,VALID,93,VALID,0.297222,
2007-09-29, 02:08:00,VALID,917.606,VALID,0,VALID,100,VALID,0.0169808,VALID,19.5875,VALID,93,VALID,0.0444196,
2007-09-29, 02:09:00,VALID,917.6,VALID,0,VALID,100,VALID,0.0509425,VALID,19.5967,VALID,93,VALID,0,
2007-09-29, 02:10:00,VALID,917.593,VALID,0,VALID,100,VALID,0.0679233,VALID,19.6067,VALID,93,VALID,0,
2007-09-29, 02:11:00,VALID,917.581,VALID,0,VALID,100,VALID,0.0679233,VALID,19.6132,VALID,93,VALID,0,
2007-09-29, 02:12:00,VALID,917.563,VALID,0,VALID,100,VALID,0.101885,VALID,19.6065,VALID,93,VALID,0,
2007-09-29, 02:13:00,VALID,917.542,VALID,0,VALID,100,VALID,0.0679233,VALID,19.6035,VALID,93,VALID,0,
2007-09-29, 02:14:00,VALID,917.532,VALID,0,VALID,100,VALID,0.0849042,VALID,19.5967,VALID,93,VALID,0,
2007-09-29, 02:15:00,VALID,917.517,VALID,0,VALID,100,VALID,0.0679233,VALID,19.581,VALID,93,VALID,0,
2007-09-29, 02:16:00,VALID,917.517,VALID,0,VALID,99.9903,VALID,0.101885,VALID,19.5513,VALID,93,VALID,0,
2007-09-29, 02:17:00,VALID,917.521,VALID,0,VALID,99.9657,VALID,0.101885,VALID,19.5154,VALID,93,VALID,0,
2007-09-29, 02:18:00,VALID,917.504,VALID,0,VALID,100,VALID,0.101885,VALID,19.5154,VALID,93,VALID,0,
2007-09-29, 02:19:00,VALID,917.513,VALID,0,VALID,100,VALID,0.101885,VALID,19.4962,VALID,93,VALID,0.285974,
2007-09-29, 02:20:00,VALID,917.524,VALID,0,VALID,100,VALID,0.0849042,VALID,19.4602,VALID,102,VALID,0.428267,
2007-09-29, 02:21:00,VALID,917.528,VALID,0,VALID,100,VALID,0.0849042,VALID,19.4375,VALID,127,VALID,0.522017,
2007-09-29, 02:22:00,VALID,917.526,VALID,0,VALID,100,VALID,-0.0169808,VALID,19.4195,VALID,146,VALID,0.52846,
2007-09-29, 02:23:00,VALID,917.539,VALID,0,VALID,100,VALID,0,VALID,19.3936,VALID,149,VALID,0.62173,
2007-09-29, 02:24:00,VALID,917.537,VALID,0,VALID,100,VALID,-0.0169808,VALID,19.3714,VALID,149,VALID,0.708984,
2007-09-29, 02:25:00,VALID,917.543,VALID,0,VALID,100,VALID,-0.0339617,VALID,19.3322,VALID,141,VALID,0.831101,
2007-09-29, 02:26:00,VALID,917.557,VALID,0,VALID,100,VALID,-0.0509425,VALID,19.3162,VALID,136,VALID,0.744368,
2007-09-29, 02:27:00,VALID,917.548,VALID,0,VALID,100,VALID,-0.0169808,VALID,19.293,VALID,133,VALID,0.7004,
2007-09-29, 02:28:00,VALID,917.547,VALID,0,VALID,100,VALID,-0.0679233,VALID,19.2868,VALID,130,VALID,0.62832,
2007-09-29, 02:29:00,VALID,917.548,VALID,0,VALID,100,VALID,-0.0169808,VALID,19.2663,VALID,111,VALID,0.60918,
2007-09-29, 02:30:00,VALID,917.545,VALID,0,VALID,100,VALID,0.0169808,VALID,19.2339,VALID,110,VALID,0.515625,
2007-09-29, 02:31:00,VALID,917.553,VALID,0,VALID,100,VALID,0,VALID,19.2119,VALID,109,VALID,0.518483,
2007-09-29, 02:32:00,VALID,917.553,VALID,0,VALID,100,VALID,-0.0339617,VALID,19.2152,VALID,107,VALID,0.525476,
2007-09-29, 02:33:00,VALID,917.57,VALID,0,VALID,100,VALID,-0.0509425,VALID,19.2152,VALID,99,VALID,0.44809,
2007-09-29, 02:34:00,VALID,917.59,VALID,0,VALID,100,VALID,-0.0339617,VALID,19.205,VALID,99,VALID,0.209535,
2007-09-29, 02:35:00,VALID,917.589,VALID,0,VALID,100,VALID,-0.0339617,VALID,19.2217,VALID,99,VALID,0.167873,
2007-09-29, 02:36:00,VALID,917.593,VALID,0,VALID,100,VALID,0,VALID,19.2346,VALID,99,VALID,0.140447,
2007-09-29, 02:37:00,VALID,917.594,VALID,0,VALID,100,VALID,-0.0169808,VALID,19.2314,VALID,99,VALID,0.124628,
2007-09-29, 02:38:00,VALID,917.586,VALID,0,VALID,100,VALID,0,VALID,19.2112,VALID,99,VALID,0.367188,
2007-09-29, 02:39:00,VALID,917.59,VALID,0,VALID,100,VALID,0.0169808,VALID,19.2015,VALID,100,VALID,0.649346,
2007-09-29, 02:40:00,VALID,917.591,VALID,0,VALID,100,VALID,-0.0169808,VALID,19.2015,VALID,104,VALID,0.587754,
2007-09-29, 02:41:00,VALID,917.601,VALID,0,VALID,100,VALID,0,VALID,19.1658,VALID,104,VALID,0.466332,
2007-09-29, 02:42:00,VALID,917.617,VALID,0,VALID,100,VALID,-0.0169808,VALID,19.1561,VALID,104,VALID,0.416295,
2007-09-29, 02:43:00,VALID,917.625,VALID,0,VALID,100,VALID,-0.0169808,VALID,19.147,VALID,104,VALID,0.107279,
2007-09-29, 02:44:00,VALID,917.62,VALID,0,VALID,100,VALID,-0.0169808,VALID,19.1306,VALID,104,VALID,0.336846,
2007-09-29, 02:45:00,VALID,917.635,VALID,0,VALID,100,VALID,-0.0169808,VALID,19.1276,VALID,104,VALID,0.468932,
2007-09-29, 02:46:00,VALID,917.616,VALID,0,VALID,100,VALID,0,VALID,19.1042,VALID,104,VALID,0.511191,
2007-09-29, 02:47:00,VALID,917.623,VALID,0,VALID,100,VALID,-0.0169808,VALID,19.0919,VALID,104,VALID,0.554492,
2007-09-29, 02:48:00,VALID,917.615,VALID,0,VALID,100,VALID,0,VALID,19.0817,VALID,104,VALID,0.693182,
2007-09-29, 02:49:00,VALID,917.622,VALID,0,VALID,100,VALID,0,VALID,19.0782,VALID,104,VALID,0.59048,
2007-09-29, 02:50:00,VALID,917.606,VALID,0,VALID,100,VALID,-0.0169808,VALID,19.0555,VALID,104,VALID,0.674964,
2007-09-29, 02:51:00,VALID,917.615,VALID,0,VALID,100,VALID,0,VALID,19.0659,VALID,104,VALID,0.508575,
2007-09-29, 02:52:00,VALID,917.598,VALID,0,VALID,100,VALID,-0.0169808,VALID,19.0692,VALID,104,VALID,0.28468,
2007-09-29, 02:53:00,VALID,917.59,VALID,0,VALID,100,VALID,-0.0509425,VALID,19.0759,VALID,104,VALID,0.15625,
2007-09-29, 02:54:00,VALID,917.606,VALID,0,VALID,100,VALID,0,VALID,19.0789,VALID,104,VALID,0.357777,
2007-09-29, 02:55:00,VALID,917.61,VALID,0,VALID,100,VALID,-0.0169808,VALID,19.075,VALID,104,VALID,0.267485,
2007-09-29, 02:56:00,VALID,917.612,VALID,0,VALID,100,VALID,-0.0339617,VALID,19.0717,VALID,104,VALID,0.315048,
2007-09-29, 02:57:00,VALID,917.632,VALID,0,VALID,100,VALID,-0.0169808,VALID,19.0784,VALID,118,VALID,0.566315,
2007-09-29, 02:58:00,VALID,917.64,VALID,0,VALID,100,VALID,-0.0169808,VALID,19.0652,VALID,162,VALID,0.784446,
2007-09-29, 02:59:00,VALID,917.643,VALID,0,VALID,100,VALID,0,VALID,19.0717,VALID,158,VALID,0.914063,
2007-09-29, 03:00:00,VALID,917.638,VALID,0,VALID,100,VALID,0.0169808,VALID,19.0784,VALID,153,VALID,0.924361,
2007-09-29, 03:01:00,VALID,917.636,VALID,0,VALID,100,VALID,0,VALID,19.062,VALID,147,VALID,0.863991,
2007-09-29, 03:02:00,VALID,917.612,VALID,0,VALID,100,VALID,0,VALID,19.0784,VALID,145,VALID,0.696075,
2007-09-29, 03:03:00,VALID,917.61,VALID,0,VALID,100,VALID,0,VALID,19.0587,VALID,145,VALID,0.759909,
2007-09-29, 03:04:00,VALID,917.606,VALID,0,VALID,100,VALID,0,VALID,19.0652,VALID,145,VALID,0.29652,
2007-09-29, 03:05:00,VALID,917.603,VALID,0,VALID,100,VALID,0,VALID,19.062,VALID,145,VALID,0.596294,
2007-09-29, 03:06:00,VALID,917.592,VALID,0,VALID,100,VALID,-0.0169808,VALID,19.0784,VALID,145,VALID,0.639291,
2007-09-29, 03:07:00,VALID,917.6,VALID,0,VALID,100,VALID,0,VALID,19.0685,VALID,145,VALID,0.686298,
2007-09-29, 03:08:00,VALID,917.604,VALID,0,VALID,100,VALID,0,VALID,19.0847,VALID,145,VALID,0.801235,
2007-09-29, 03:09:00,VALID,917.616,VALID,0,VALID,100,VALID,-0.0169808,VALID,19.075,VALID,145,VALID,0.637607,
2007-09-29, 03:10:00,VALID,917.633,VALID,0,VALID,100,VALID,0.0509425,VALID,19.0518,VALID,145,VALID,0.682813,
2007-09-29, 03:11:00,VALID,917.648,VALID,0,VALID,100,VALID,0.0169808,VALID,19.0523,VALID,143,VALID,0.632813,
2007-09-29, 03:12:00,VALID,917.658,VALID,0,VALID,100,VALID,0,VALID,19.049,VALID,142,VALID,0.350074,
2007-09-29, 03:13:00,VALID,917.673,VALID,0,VALID,100,VALID,0.0339617,VALID,19.039,VALID,142,VALID,0.196057,
2007-09-29, 03:14:00,VALID,917.682,VALID,0,VALID,100,VALID,0.0339617,VALID,19.0458,VALID,142,VALID,0.0025436,
2007-09-29, 03:15:00,VALID,917.68,VALID,0,VALID,100,VALID,0.0169808,VALID,19.0161,VALID,142,VALID,0,
2007-09-29, 03:16:00,VALID,917.684,VALID,0,VALID,100,VALID,0.0339617,VALID,19.0001,VALID,142,VALID,0,
2007-09-29, 03:17:00,VALID,917.685,VALID,0,VALID,100,VALID,0.0169808,VALID,18.9776,VALID,142,VALID,0,
2007-09-29, 03:18:00,VALID,917.698,VALID,0,VALID,100,VALID,0.0679233,VALID,18.951,VALID,140,VALID,0.0272569,
2007-09-29, 03:19:00,VALID,917.699,VALID,0,VALID,100,VALID,0,VALID,18.945,VALID,132,VALID,0,
2007-09-29, 03:20:00,VALID,917.706,VALID,0,VALID,100,VALID,0.0339617,VALID,18.9121,VALID,127,VALID,0.151278,
2007-09-29, 03:21:00,VALID,917.721,VALID,0,VALID,100,VALID,0.0339617,VALID,18.8836,VALID,117,VALID,0.331854,
2007-09-29, 03:22:00,VALID,917.718,VALID,0,VALID,100,VALID,0.0339617,VALID,18.8739,VALID,108,VALID,0.285352,
2007-09-29, 03:23:00,VALID,917.723,VALID,0,VALID,100,VALID,0.0169808,VALID,18.8507,VALID,108,VALID,0.0901989,
2007-09-29, 03:24:00,VALID,917.709,VALID,0,VALID,100,VALID,0,VALID,18.8349,VALID,99,VALID,0.303544,
2007-09-29, 03:25:00,VALID,917.71,VALID,0,VALID,100,VALID,0,VALID,18.8057,VALID,88,VALID,0.45191,
2007-09-29, 03:26:00,VALID,917.681,VALID,0,VALID,100,VALID,-0.0169808,VALID,18.7993,VALID,88,VALID,0.615767,
2007-09-29, 03:27:00,VALID,917.653,VALID,0,VALID,100,VALID,-0.0169808,VALID,18.7928,VALID,96,VALID,0.678925,
2007-09-29, 03:28:00,VALID,917.66,VALID,0,VALID,100,VALID,0.0169808,VALID,18.8025,VALID,109,VALID,0.961496,
2007-09-29, 03:29:00,VALID,917.637,VALID,0,VALID,100,VALID,0,VALID,18.8025,VALID,116,VALID,1.15696,
2007-09-29, 03:30:00,VALID,917.649,VALID,0,VALID,100,VALID,-0.0169808,VALID,18.78,VALID,119,VALID,1.10719,
2007-09-29, 03:31:00,VALID,917.637,VALID,0,VALID,100,VALID,0,VALID,18.7703,VALID,126,VALID,1.09466,
2007-09-29, 03:32:00,VALID,917.645,VALID,0,VALID,100,VALID,0,VALID,18.7668,VALID,123,VALID,0.845348,
2007-09-29, 03:33:00,VALID,917.644,VALID,0,VALID,100,VALID,0,VALID,18.7569,VALID,125,VALID,0.864826,
2007-09-29, 03:34:00,VALID,917.642,VALID,0,VALID,100,VALID,0.0339617,VALID,18.7367,VALID,132,VALID,0.851372,
2007-09-29, 03:35:00,VALID,917.63,VALID,0,VALID,100,VALID,0,VALID,18.7409,VALID,129,VALID,0.851744,
2007-09-29, 03:36:00,VALID,917.621,VALID,0,VALID,100,VALID,0,VALID,18.7476,VALID,127,VALID,1.03516,
2007-09-29, 03:37:00,VALID,917.62,VALID,0,VALID,100,VALID,0.0169808,VALID,18.7406,VALID,127,VALID,0.832217,
2007-09-29, 03:38:00,VALID,917.611,VALID,0,VALID,100,VALID,0,VALID,18.7508,VALID,137,VALID,0.662574,
2007-09-29, 03:39:00,VALID,917.605,VALID,0,VALID,100,VALID,-0.0339617,VALID,18.7478,VALID,132,VALID,0.940739,
2007-09-29, 03:40:00,VALID,917.617,VALID,0,VALID,100,VALID,0,VALID,18.7833,VALID,130,VALID,0.821456,
2007-09-29, 03:41:00,VALID,917.615,VALID,0,VALID,100,VALID,0,VALID,18.7856,VALID,127,VALID,0.832386,
2007-09-29, 03:42:00,VALID,917.613,VALID,0,VALID,100,VALID,0.0169808,VALID,18.8023,VALID,126,VALID,0.790698,
2007-09-29, 03:43:00,VALID,917.625,VALID,0,VALID,100,VALID,0.0169808,VALID,18.7895,VALID,127,VALID,0.873094,
2007-09-29, 03:44:00,VALID,917.635,VALID,0,VALID,100,VALID,0.0169808,VALID,18.7958,VALID,147,VALID,0.953869,
2007-09-29, 03:45:00,VALID,917.623,VALID,0,VALID,100,VALID,-0.0169808,VALID,18.806,VALID,143,VALID,0.554688,